Regional Weather Roundup
Issued by NWS Wakefield, VA

Home | Current Version | Previous Version | Graphics & Text | Print | Product List | Glossary On
Versions: 1 2 3 4 5 6 7 8 9 10 11 12 13 14 15 16 17 18 19 20 21 22 23 24 25 26 27 28 29 30 31 32 33 34 35 36 37 38 39 40 41 42 43 44 45 46 47 48 49 50
000
ASUS41 KAKQ 220110
RWRAKQ

REGIONAL WEATHER ROUNDUP
NATIONAL WEATHER SERVICE WAKEFIELD VA
800 PM EST SUN DEC 21 2014

Note: "fair" indicates few or no clouds below 12,000 feet with no
significant weather and/or obstructions to visibility. * = Denotes
station may not report precipitation (e.g., rain,snow,etc.),
thunder or fog.

VAZ042-051-052>054-056-220200-
NORTHERN VIRGINIA

CITY           SKY/WX    TMP DP  RH WIND       PRES   REMARKS
WASH NATIONAL  PTCLDY    38  27  64 CALM      30.33R
DULLES         PTCLDY    29  23  78 CALM      30.31S
FORT BELVOIR   CLEAR     29  24  81 SE1       30.34R
QUANTICO       CLEAR     32  26  78 NW3       30.35R
FREDERICKSBRG* CLEAR     32  27  81 CALM      30.32R
STAFFORD*      CLEAR     28  23  79 CALM      30.36S
WARRENTON      CLEAR     27  27 100 CALM      30.31R
CULPEPER*      CLEAR     28  25  86 CALM      30.31S
MANASSAS*      NOT AVBL
LEESBURG*      CLEAR     30  27  86 MISG      30.33R
WINCHESTER     CLEAR     32  21  64 CALM      30.28S
FRONT ROYAL*   CLEAR     32  27  80 CALM      30.27S
LURAY*         CLEAR     32  28  86 NE3       30.26S
$$

VAZ048-049-060>072-079>083-220200-
CENTRAL AND SOUTH CENTRAL VIRGINIA

CITY           SKY/WX    TMP DP  RH WIND       PRES   REMARKS
RICHMOND       PTCLDY    37  26  64 E6        30.30S
CHESTERFIELD*  PTCLDY    32  18  55 CALM      30.31S
PETERSBURG*    PTCLDY    30  29  94 CALM      30.31S
HANOVER        PTCLDY    30  26  85 NE3       30.32S
TAPPAHANNOCK*  PTCLDY    31  24  74 CALM      30.33S
QUINTON*       PTCLDY    33  28  83 E5        30.31S
CHARLOTTSVILLE CLEAR     33  26  75 N3        30.28S
GORDONSVILLE*  CLEAR     28  24  87 CALM      30.29S
ORANGE*        CLEAR     28  27  93 CALM      30.31F
LOUISA*        CLEAR     30  27  86 CALM      30.28S
BUMPASS*       CLEAR     31  26  79 CALM      30.30S
FARMVILLE*     PTCLDY    37  29  74 N3        30.27S
CREWE*         MOCLDY    32  28  86 CALM      30.27S
FORT PICKETT*  PTCLDY    34  28  78 E5        30.29R
CHASE CITY*    CLEAR     39  32  77 CALM      30.27S
CLARKSVILLE*   CLEAR     37  32  81 CALM      30.25S
SOUTH HILL*    CLEAR     35  29  80 CALM      30.33F
LAWRENCEVILLE* CLEAR     36  30  78 CALM      30.27F
EMPORIA*       PTCLDY    34  30  86 CALM      30.30F
$$

VAZ088>098-220200-
SOUTHEAST VIRGINIA

CITY           SKY/WX    TMP DP  RH WIND       PRES   REMARKS
NORFOLK        CLEAR     35  29  78 CALM      30.31F
VIRGINIA BEACH MOCLDY    34  27  75 NE3       30.30F
NORFOLK NAVAL  MOCLDY    39  30  70 E5        30.32F
WEST POINT*    PTCLDY    34  29  80 E3        30.34S
SALUDA*        FAIR      32  28  82 CALM      30.32S
NEWPORT NEWS   CLEAR     33  28  81 CALM      30.31S
LANGLEY AFB    CLEAR     34  29  82 NE8       30.31F
FORT EUSTIS    PTCLDY    37  30  77 E3        30.29S
WILLIAMSBURG*  PTCLDY    36  32  87 CALM      30.32F
HR EXEC AP*    CLEAR     27  25  93 CALM      30.33S
FRANKLIN*      PTCLDY    34  28  80 E5        30.30F
WAKEFIELD      PTCLDY    32  29  88 CALM      30.31S
$$

VAZ020-022-025-037-045-220200-
WEST CENTRAL AND SOUTHWEST VIRGINIA

CITY           SKY/WX    TMP DP  RH WIND       PRES   REMARKS
STAUNTON*      CLEAR     29  24  82 CALM      30.26R
WAYNESBORO*    CLEAR     34  26  72 SE5       30.24R
HOT SPRINGS VA PTCLDY    31  31  99 SE8       30.11F
LYNCHBURG      CLOUDY    38  31  76 CALM      30.27R
DANVILLE       MOCLDY    39  31  72 E3        30.25S
SOUTH BOSTON*  CLEAR     35  31  86 CALM      30.26S
MARTINSVILLE   CLOUDY    40  35  82 CALM      30.25F
ROANOKE        CLOUDY    40  31  70 SE7       30.25S
BLACKSBURG     CLOUDY    37  31  79 E9        30.22S
DUBLIN*        CLOUDY    40  35  81 SE5       30.19S
MARION*        MOCLDY    37  33  84 E7        30.16S
HILLSVILLE*    CLOUDY    37  33  87 CALM      30.16S
RICHLANDS*     MOCLDY    38  32  77 E5        30.10S
WISE*          CLEAR     41  30  65 CALM      30.10S
ABINGDON*      MOCLDY    41  35  79 E8        30.11S
$$

MDZ021>025-VAZ099-100-220200-
SOUTHERN MARYLAND AND THE DELMARVA PENINSULA

CITY           SKY/WX    TMP DP  RH WIND       PRES   REMARKS
PATUXENT RIVER CLEAR     27  23  85 CALM      30.34R
BAY BRIDGE APT   N/A     34  25  69 NE5       30.35R
LEONARDTOWN    CLEAR     30  27  86 CALM      30.35R
DOVER          CLEAR     28  24  85 N7        30.31S
GEORGETOWN     CLEAR     28  23  81 CALM      30.33F
EASTON         NOT AVBL
CAMBRIDGE      CLEAR     32  28  86 CALM      30.33S
SALISBURY      CLEAR     30  24  78 CALM      30.33S
OCEAN CITY     CLEAR     27  25  92 CALM      30.33S FOG
WALLOPS ISLAND CLEAR     31  27  85 CALM      30.33F
ACCOMACK*      CLEAR     30  27  86 CALM      30.33S
$$

NCZ012>017-030>032-220200-
NORTH CENTRAL AND EASTERN NORTH CAROLINA

CITY           SKY/WX    TMP DP  RH WIND       PRES   REMARKS
ROANOKE RAPIDS CLEAR     34  30  86 NE5       30.27F
RALEIGH        CLOUDY    45  33  63 E8        30.25S
ELIZABETH CITY CLEAR     41  33  73 N8        30.29F
AHOSKIE*       CLEAR     37  31  81 CALM      30.29F
EDENTON*         N/A     38  33  81 NE6       30.28F
CURRITUCK*     CLEAR     40  33  76 NE5       30.30F
KILL DEVIL HLS CLEAR     44  39  81 NE8       30.26F
MANTEO         CLEAR     44  39  83 NE12      30.27F
CAPE HATTERAS  CLOUDY    47  44  90 NE10G20   30.23F
TARBORO*       MOCLDY    43  34  70 E3        30.27F
GOLDSBORO      CLOUDY    46  40  81 NE9       30.23S
WASHINGTON     CLOUDY    42  35  77 NE6       30.27S
GREENVILLE     CLOUDY    43  36  75 E9        30.26F
NEW BERN       CLOUDY    46  37  71 NE10      30.25F
WILMINGTON     CLOUDY    46  38  73 NE9       30.20F
$$

VAZ048-220200-
ELSEWHERE

CITY           SKY/WX    TMP DP  RH WIND       PRES   REMARKS
HARRISBURG PA  PTCLDY    27  21  78 N3        30.33F
BALTIMORE      PTCLDY    33  24  69 E7        30.33F
ANNAPOLIS      CLEAR     36  26  67 NE7       30.34S
ANDREWS AFB    PTCLDY    30  23  77 CALM      30.32R
PHILADELPHIA   CLEAR     34  22  61 VRB3      30.36R
HENDERSON NC   PTCLDY    36  31  81 E3        30.26R
GREENSBORO     CLOUDY    41  34  76 E6        30.22R
ROCKY MOUNT    MOCLDY    43  32  65 NE3       30.26F
$$

VAZ100-220200-
MARINE

STATION/POSITION TIME  TEMP    WIND        PRES    WAVE   SWELL
                       AIR SEA DIR/SP/G            HT/PER HT/PER
                 (UTC) (F)     (DEG/KT/KT) (MB)    (FT/S) (FT/S)
CAPE MAY NJ      0100   36 43   20/  2/  4 1026.8F
LEWES DE         0100   40 42   10/  5/  7 1027.0F
15NM E FENWICK I 0100   40 45              1026.9R   2/10
OCEAN-CITY-INLET 0100   38 44  360/  4/  5 1026.8S
WACHAPREAGUE VA  0100   34 42  320/  2/  3 1026.7S
THOMAS POINT MD  0100   36 41   50/ 13/ 14 1028.2F
GOOSES REEF MD   0100   38     VRB  6/  6  1026.0S
COVE POINT MD    0100   37      70/  4/  5 1027.1R
SOLOMONS ISLAND  0100      43                N/A
BISHOPS HEAD MD  0100   37 38   30/  5/  7 1026.4R
POTOMAC MD       0100   40      60/  6/  8 1026.0R
CAMBRIDGE MD     0100   35 40   50/  3/  4 1026.8S
LEWISETTA VA     0100   39 41   70/  8/  9 1026.7F
RAPPAHANNOCK LGT 0100           50/  7/  8 1027.2R
STINGRAY PT      0100   40      60/  8/ 10 1027.0S
YORK RVR RNG VA  0100   40      70/ 10/ 10 1026.0F
YORKTOWN VA      0100   40 45   50/  7/ 10 1026.2F
JAMESTOWN VA     0100   37     100/  4/  6   N/A
DOMINION TERM VA 0100   39      50/  5/  6 1026.5S
KIPTOPEKE VA     0100      48   40/  4/  5   N/A
CHES BAY BRIDGE  0100   41 46   50/  9/ 11 1026.0R
CAPE HENRY VA    0100   41      50/  9/ 11 1025.1R
CHESAPEAKE LGHT  0000   42      50/ 12/ 14 1027.2R
WILLOUBY STN VA  0100   41      80/  7/  8 1026.7F
S CRANEY ISL VA  0100           70/  4/  5 1026.2F
CAPE HENRY BUOY  0100      49                N/A     2/11
1ST LANDING BUOY 0100   42      60/ 10/ 12 1026.0R
CAPE CHARLES BUO 0100      47                N/A     2/10   2/10
64NM E OF VA BCH 0100   48 54   40/ 14/ 17 1025.4R   3/ 4   2/ 9
DUCK PIER NC     0100   45 46   40/ 14/ 17 1024.7F
44100 DUCK FRF   0100      51                N/A     3/10
44056 DUCK FRF   0100      46                N/A     3/ 4
OREGON INLET NC  0100   46 48   10/ 11/ 17 1024.8F
HATTERAS NC      0100   47 49   30/ 12/ 20 1023.7F
DIAMOND SHLS NC  0100   56                 1022.6F   4/ 5
CAPE LOOKOUT NC  0000   48      30/ 19/ 24 1022.8F
$$


USA.gov is the U.S. government's official web portal to all federal, state and local government web resources and services.